Wind_Speed
34 34 35 36 36 37 38 38 38 38 39 39 39 39 39 38 38 39 39 39 40 41 42 43 43 43 43 43 42 43 44 43 42 41 41 41 41 42 42 41 41 43 43
35 36 37 38 39 39 40 40 40 40 40 40 39 39 39 39 39 39 39 40 40 41 42 43 44 45 45 45 45 44 45 46 44 44 43 43 43 44 43 42 42 43 43
37 38 39 40 40 41 41 41 41 41 40 40 40 39 39 38 39 39 40 40 41 41 42 43 44 45 46 46 47 47 47 48 47 47 46 45 45 45 45 43 44 44 44
39 40 41 41 42 42 42 42 42 41 41 40 40 39 38 39 39 40 40 40 41 41 42 43 44 46 47 47 48 48 49 49 49 49 50 48 48 47 47 45 45 46 45
41 41 42 43 43 44 44 44 43 42 41 40 39 39 39 39 39 40 40 40 40 40 41 42 44 45 47 48 48 49 51 51 51 51 51 51 50 49 49 47 46 47 47
42 43 44 44 44 45 45 44 43 42 41 40 39 39 39 39 39 39 40 39 40 40 41 41 43 44 46 48 49 50 52 52 53 53 53 52 53 51 50 50 49 48 47
43 44 45 45 45 46 45 44 43 42 41 41 40 39 39 39 39 39 39 38 38 38 39 39 40 42 44 46 48 50 52 52 53 55 56 55 55 54 52 52 51 50 49
45 46 46 46 46 46 45 44 43 42 41 40 39 39 38 38 38 38 37 36 35 35 36 36 37 39 41 44 46 49 51 53 53 55 57 57 57 56 56 53 52 53 53
46 47 47 47 47 46 45 44 43 42 41 40 39 39 38 37 36 36 35 33 33 33 33 34 35 36 39 42 45 47 50 52 53 55 58 59 59 58 57 56 54 54 55
47 47 47 47 47 46 45 44 42 42 41 40 39 38 36 35 35 34 33 31 30 30 31 32 33 34 37 40 42 44 47 50 53 54 57 59 59 59 58 57 57 54 54
48 48 48 47 47 47 45 43 42 42 41 39 38 36 35 33 32 31 30 28 27 27 28 29 30 31 33 36 39 41 44 48 51 54 55 58 58 58 58 58 59 57 54
48 48 48 48 47 46 44 43 42 41 39 38 36 35 33 32 30 29 27 27 26 25 25 25 25 26 28 31 34 37 42 45 48 52 54 55 56 56 56 57 58 59 56
49 49 49 48 47 45 44 42 41 40 38 37 35 33 31 30 29 27 27 26 24 22 20 20 20 21 23 27 31 34 37 41 44 48 51 52 53 53 53 55 56 56 56
49 48 48 47 45 44 42 41 40 38 37 35 33 31 30 28 27 26 26 25 21 17 14 13 14 16 19 23 27 31 33 37 41 44 47 49 50 50 51 52 52 52 53
48 47 47 45 43 42 41 40 39 38 37 34 31 30 28 26 25 25 24 22 18 13 9 9 10 12 15 18 22 26 30 33 36 40 43 46 46 46 47 49 49 48 50
47 46 45 44 42 40 39 39 38 37 36 32 30 28 27 25 23 23 22 20 16 11 7 4 6 8 11 15 19 22 27 29 32 35 39 41 42 41 43 45 46 46 46
47 45 44 42 41 39 37 36 36 35 34 32 29 27 25 23 22 21 20 18 14 10 5 2 3 6 9 13 16 21 24 27 29 33 35 38 39 39 40 42 44 44 45
46 44 43 41 39 38 36 35 34 34 32 30 28 26 24 22 21 19 17 15 12 8 5 1 2 6 8 11 15 19 23 25 27 29 32 35 36 37 38 39 41 43 44
44 43 41 39 38 36 34 33 33 32 31 29 27 25 24 21 19 18 16 14 11 8 4 1 2 5 8 11 14 18 21 23 24 26 29 31 33 34 36 38 39 41 42
43 41 39 37 36 34 33 31 31 30 29 27 25 24 23 21 18 17 15 12 10 7 4 1 2 4 7 11 13 16 18 21 22 24 26 27 30 32 34 35 37 40 41
41 39 37 35 34 32 31 29 28 28 26 26 24 23 22 20 18 17 14 12 9 7 5 1 3 5 7 9 12 14 17 19 21 23 24 26 28 30 32 33 36 39 39
39 37 35 33 31 30 29 27 26 25 24 24 23 22 21 19 18 16 14 12 9 7 5 1 2 5 6 9 11 13 15 17 19 21 23 24 26 28 29 30 33 35 37
37 35 33 31 29 27 26 25 24 23 22 22 21 21 20 19 17 15 13 11 9 7 5 2 2 4 7 9 11 12 14 17 18 20 21 22 24 26 28 29 31 32 32
34 32 30 28 26 25 23 22 21 20 20 19 19 19 19 19 18 15 13 11 9 7 5 4 2 3 7 9 11 13 14 16 17 18 20 21 23 25 26 28 30 31 31
31 29 27 25 24 22 21 19 18 18 18 17 17 18 18 17 17 15 13 12 10 8 5 4 3 3 6 8 10 12 13 14 15 16 18 20 22 24 25 26 28 29 30
29 27 25 23 21 20 18 17 16 15 14 15 15 15 16 16 15 14 12 11 11 9 8 6 4 3 5 7 8 10 11 13 14 14 16 18 20 22 24 25 26 27 29
Wind_Direction
329 328 327 326 323 321 319 316 313 310 308 305 302 299 295 291 288 284 279 275 271 268 265 261 257 253 249 247 244 241 239 236 232 230 229 227 223 222 222 220 220 218 215
331 330 329 327 325 323 320 318 315 312 310 307 304 300 296 292 289 285 281 277 274 270 266 262 258 253 249 246 243 240 237 235 232 228 228 226 224 221 220 218 217 215 213
332 331 330 328 326 324 322 319 317 314 311 309 305 302 298 294 290 287 283 279 275 271 266 262 258 254 249 246 242 239 237 234 231 227 225 225 224 222 219 217 215 214 214
333 331 330 329 327 325 323 320 318 315 312 310 307 303 300 296 292 288 285 282 277 272 267 263 258 254 249 246 242 239 236 233 230 227 224 223 223 221 219 217 216 215 215
333 332 331 329 327 326 323 321 319 317 314 311 308 304 302 299 295 291 287 283 279 274 269 263 258 253 249 245 242 239 235 232 229 226 224 223 222 222 220 218 217 215 215
333 332 331 329 328 326 324 322 320 318 315 312 309 307 303 300 296 292 289 285 280 276 270 265 259 254 249 245 242 239 235 232 228 225 222 222 221 222 220 219 218 216 216
333 332 331 330 328 327 325 323 321 319 317 314 311 309 306 303 299 296 292 288 283 278 272 266 261 255 249 244 241 238 234 231 228 224 222 220 220 220 219 218 218 218 217
333 333 331 330 329 328 326 324 323 321 318 316 314 311 309 306 302 300 296 291 285 279 273 266 261 255 249 244 240 236 233 230 227 224 221 220 220 219 219 217 218 218 217
333 333 332 331 330 329 327 325 324 322 321 318 315 313 311 308 306 304 300 295 287 280 273 267 261 256 250 244 239 234 230 228 226 224 221 220 220 219 219 219 217 217 216
333 333 332 331 331 330 328 326 325 324 322 320 317 315 314 312 310 307 303 298 290 282 276 269 262 256 249 243 237 233 228 225 224 223 222 220 220 219 219 219 217 215 215
333 333 332 332 332 331 330 328 326 325 324 323 321 319 317 315 314 311 308 302 294 286 278 270 262 255 246 239 234 230 225 223 221 221 221 219 220 220 219 219 219 217 215
332 332 332 333 333 332 331 330 329 328 327 326 324 322 321 320 319 316 313 309 301 292 281 271 262 253 241 234 228 224 222 221 220 219 220 220 219 219 219 219 219 219 217
332 332 332 333 333 334 333 332 332 331 331 329 327 325 324 323 323 322 320 315 309 299 284 270 259 247 236 228 222 221 220 219 219 218 218 218 217 218 218 219 219 219 218
332 332 333 334 334 335 335 335 335 334 333 332 331 330 328 326 326 328 328 324 318 308 289 268 253 240 230 224 219 218 218 218 217 216 215 215 216 217 217 218 219 219 217
332 332 333 334 335 335 335 336 336 336 336 335 334 333 332 331 331 332 334 333 330 321 302 271 245 234 225 219 216 213 211 211 211 211 210 212 213 215 215 216 216 217 217
333 333 333 334 335 335 336 336 337 338 339 338 337 337 338 337 337 338 341 342 342 337 325 287 236 219 214 209 207 204 202 203 206 206 207 209 210 212 213 213 212 214 214
332 333 334 335 335 336 336 337 338 340 341 342 342 341 341 341 342 343 346 348 350 350 348 318 208 204 207 204 202 199 199 200 202 203 204 205 209 209 209 210 208 209 211
331 332 333 334 335 336 337 337 339 341 343 344 344 344 343 343 344 347 349 352 353 354 351 338 201 200 202 199 197 194 195 195 197 199 202 205 207 208 207 207 206 207 209
330 331 332 333 334 335 336 337 339 341 343 345 346 346 346 346 348 349 351 353 355 354 347 325 204 199 198 196 193 190 191 193 197 199 200 202 205 206 206 206 206 206 207
327 329 330 332 333 334 335 337 339 341 344 346 347 349 350 352 353 352 353 354 356 356 351 324 190 183 187 190 190 189 191 195 198 198 199 200 202 203 203 205 206 205 205
325 326 328 330 331 333 335 336 339 341 344 348 350 351 352 354 356 356 355 355 357 358 352 309 189 181 184 185 186 187 189 193 197 197 198 200 201 202 202 204 206 205 204
321 323 324 327 328 331 333 335 338 341 344 348 352 354 354 354 355 357 358 358 358 359 358 329 205 191 191 188 185 186 189 192 194 195 197 198 200 201 201 203 204 206 206
317 319 321 323 325 328 331 333 336 340 344 348 352 357 358 359 359 360 0 2 5 9 8 10 193 195 192 191 187 185 188 191 194 194 195 197 199 200 200 201 202 204 207
313 315 317 319 321 324 327 329 333 339 343 348 353 357 0 3 7 11 12 13 16 21 24 33 63 167 179 184 186 189 191 194 196 197 198 201 201 201 200 201 202 203 204
308 311 312 313 316 319 322 325 329 335 342 348 353 359 4 7 11 18 22 23 25 30 40 48 62 126 165 178 184 188 192 194 196 199 201 200 200 201 201 202 203 204 206
303 305 306 307 310 314 316 319 324 330 338 346 354 1 8 12 17 24 27 30 33 40 48 54 68 112 154 169 177 185 189 191 193 193 196 198 198 199 201 203 204 205 206
Height
5776 5770 5765 5759 5753 5748 5742 5736 5731 5726 5721 5717 5712 5708 5705 5701 5699 5697 5696 5695 5695 5695 5696 5697 5700 5702 5705 5709 5713 5717 5722 5727 5733 5738 5742 5747 5752 5758 5764 5770 5776 5782 5788
5768 5763 5757 5751 5745 5739 5733 5727 5721 5716 5710 5705 5700 5696 5692 5689 5686 5684 5682 5681 5681 5681 5681 5682 5685 5687 5691 5695 5699 5704 5709 5715 5722 5727 5732 5737 5742 5748 5755 5761 5767 5773 5780
5761 5755 5749 5742 5736 5730 5723 5717 5711 5705 5699 5694 5689 5684 5680 5677 5674 5671 5669 5667 5666 5666 5666 5667 5669 5672 5676 5680 5685 5690 5696 5702 5709 5716 5721 5727 5733 5739 5745 5752 5758 5765 5771
5754 5748 5741 5734 5728 5721 5714 5707 5701 5694 5689 5683 5677 5672 5668 5664 5660 5657 5655 5653 5651 5651 5651 5652 5653 5656 5660 5664 5670 5676 5682 5688 5696 5703 5710 5716 5722 5728 5735 5742 5749 5756 5763
5748 5741 5734 5726 5719 5712 5705 5697 5691 5684 5678 5672 5666 5661 5656 5652 5647 5644 5641 5638 5636 5635 5635 5635 5637 5639 5643 5648 5654 5660 5667 5674 5681 5689 5697 5704 5711 5718 5725 5732 5739 5746 5754
5741 5733 5726 5718 5710 5703 5695 5688 5681 5674 5667 5661 5655 5649 5644 5639 5634 5630 5627 5624 5621 5620 5619 5619 5620 5623 5627 5631 5637 5644 5651 5659 5667 5676 5684 5692 5699 5707 5714 5722 5730 5737 5745
5733 5726 5718 5710 5702 5694 5686 5678 5671 5664 5657 5650 5644 5638 5632 5626 5621 5617 5612 5609 5606 5604 5603 5603 5604 5607 5610 5615 5621 5627 5635 5643 5652 5662 5671 5679 5686 5695 5703 5712 5720 5728 5736
5726 5718 5710 5702 5693 5685 5677 5669 5661 5654 5646 5639 5633 5626 5620 5614 5609 5604 5599 5595 5592 5590 5588 5588 5589 5591 5595 5599 5605 5612 5619 5628 5638 5648 5658 5666 5673 5681 5691 5700 5708 5717 5725
5719 5710 5702 5693 5685 5676 5668 5660 5652 5644 5636 5629 5622 5616 5609 5603 5597 5591 5586 5582 5579 5576 5574 5574 5575 5577 5580 5584 5590 5597 5605 5613 5622 5632 5641 5650 5659 5669 5679 5688 5697 5706 5714
5711 5703 5694 5686 5677 5668 5659 5651 5643 5635 5627 5619 5612 5605 5599 5592 5586 5581 5575 5571 5567 5564 5562 5561 5562 5563 5566 5569 5576 5583 5591 5600 5608 5618 5627 5637 5647 5656 5667 5676 5686 5694 5703
5704 5695 5687 5678 5669 5660 5651 5642 5634 5626 5618 5610 5603 5596 5589 5583 5577 5571 5565 5560 5556 5553 5550 5549 5549 5550 5553 5557 5563 5570 5578 5586 5594 5604 5614 5624 5634 5645 5655 5665 5674 5684 5693
5697 5688 5679 5670 5661 5652 5643 5634 5626 5618 5610 5602 5594 5587 5580 5574 5568 5562 5557 5551 5547 5543 5540 5538 5538 5539 5542 5547 5553 5559 5566 5574 5583 5593 5603 5613 5624 5634 5644 5653 5663 5673 5683
5689 5681 5672 5662 5653 5645 5636 5628 5619 5610 5602 5595 5587 5580 5574 5567 5561 5555 5550 5544 5538 5534 5531 5530 5530 5531 5534 5538 5544 5550 5557 5565 5574 5583 5594 5604 5613 5623 5633 5643 5653 5663 5673
5682 5673 5665 5656 5647 5638 5629 5621 5613 5605 5597 5589 5581 5574 5568 5562 5556 5550 5544 5537 5532 5527 5525 5524 5524 5526 5528 5532 5538 5544 5550 5558 5566 5575 5585 5595 5604 5614 5624 5634 5644 5654 5664
5675 5667 5658 5649 5641 5633 5624 5616 5608 5599 5591 5584 5577 5570 5563 5557 5551 5546 5539 5533 5528 5524 5521 5521 5521 5523 5525 5528 5532 5538 5544 5552 5560 5568 5578 5587 5597 5606 5616 5626 5636 5645 5656
5669 5660 5652 5644 5636 5628 5620 5611 5603 5595 5587 5579 5572 5566 5559 5553 5548 5543 5537 5531 5526 5523 5521 5520 5520 5521 5523 5526 5530 5535 5541 5548 5556 5564 5572 5581 5591 5600 5609 5618 5629 5638 5647
5663 5654 5646 5638 5631 5623 5615 5608 5600 5593 5584 5576 5569 5563 5557 5551 5546 5541 5536 5531 5527 5524 5522 5521 5521 5522 5523 5526 5529 5533 5539 5546 5553 5560 5568 5577 5586 5594 5603 5612 5621 5631 5640
5656 5648 5641 5633 5626 5619 5611 5604 5597 5589 5582 5575 5568 5562 5556 5550 5545 5540 5535 5531 5528 5525 5523 5522 5522 5523 5524 5526 5529 5533 5538 5544 5551 5558 5565 5573 5581 5589 5598 5606 5615 5624 5633
5650 5642 5635 5628 5621 5614 5607 5601 5594 5587 5580 5573 5566 5560 5555 5549 5544 5539 5535 5532 5529 5526 5525 5524 5524 5524 5525 5527 5530 5534 5538 5544 5550 5556 5563 5570 5577 5585 5593 5601 5609 5618 5627
5643 5637 5630 5623 5617 5610 5604 5598 5591 5585 5578 5571 5565 5560 5554 5549 5544 5540 5535 5532 5529 5527 5526 5525 5525 5525 5527 5529 5531 5535 5539 5544 5549 5555 5561 5567 5574 5581 5588 5596 5604 5613 5621
5637 5631 5625 5619 5613 5607 5601 5595 5589 5583 5577 5571 5565 5559 5554 5549 5544 5540 5536 5533 5530 5528 5527 5526 5526 5527 5528 5530 5533 5536 5540 5544 5548 5554 5559 5565 5572 5578 5585 5592 5599 5607 5615
5630 5625 5619 5614 5608 5603 5598 5593 5587 5581 5576 5570 5565 5559 5554 5549 5545 5540 5537 5533 5531 5529 5528 5527 5527 5528 5529 5531 5534 5537 5540 5544 5548 5553 5558 5564 5569 5575 5582 5588 5595 5603 5610
5623 5618 5614 5609 5604 5599 5595 5590 5585 5580 5575 5570 5565 5560 5555 5550 5545 5541 5537 5534 5532 5530 5528 5528 5528 5528 5530 5532 5534 5537 5541 5544 5548 5552 5557 5562 5567 5573 5579 5585 5591 5598 5605
5616 5612 5608 5604 5600 5596 5592 5588 5583 5579 5574 5570 5565 5560 5555 5551 5546 5542 5539 5536 5533 5531 5530 5529 5528 5529 5530 5532 5535 5537 5541 5544 5548 5551 5555 5560 5565 5570 5576 5582 5588 5594 5601
5608 5605 5602 5598 5595 5592 5588 5585 5581 5577 5574 5569 5565 5561 5556 5552 5548 5544 5541 5538 5535 5533 5532 5531 5530 5530 5531 5533 5535 5538 5540 5543 5547 5550 5554 5558 5562 5567 5573 5579 5585 5591 5597
5600 5598 5595 5593 5590 5587 5585 5582 5579 5576 5573 5569 5566 5562 5558 5554 5550 5546 5543 5541 5538 5536 5534 5533 5532 5532 5533 5534 5536 5538 5540 5543 5546 5549 5553 5556 5561 5566 5571 5576 5582 5587 5593